SCP
0 0 0 1 1 1 1 1 1 1 1 0 0 1 1 1 1 1 1 1 1 1 0 0 0 0 0 0 0 0 0 0 0 0 0 0 0 0 0 0 0 0 0
0 0 0 1 1 1 1 1 1 1 0 0 0 0 0 1 1 1 1 1 1 0 0 0 0 0 0 0 0 0 0 0 0 0 0 0 0 0 0 0 0 0 0
0 0 0 1 1 1 0 0 0 0 0 0 0 0 0 0 0 0 0 0 0 0 0 0 0 0 0 0 0 -0 -0 -0 0 0 -0 0 0 0 0 0 0 0 0
0 0 0 0 0 0 0 0 0 0 0 0 0 0 0 0 0 0 0 0 0 0 0 0 0 0 -0 -0 -0 -0 -0 -0 -0 -0 -0 0 0 0 0 0 0 0 0
0 0 0 0 0 0 0 0 0 0 0 0 0 0 0 0 0 0 0 0 0 0 0 0 0 -0 -0 -0 -0 -0 -0 -0 -0 -0 0 0 0 0 0 0 0 0 0
0 0 0 0 0 0 0 1 0 0 0 0 0 0 0 0 0 0 0 0 0 0 0 0 0 0 0 -0 -0 -0 0 0 0 0 0 0 0 0 1 0 1 1 1
0 0 0 0 0 1 1 1 1 1 1 1 0 0 0 0 0 0 0 0 0 0 0 0 0 0 0 0 0 0 0 0 0 0 0 0 0 0 0 0 0 0 0
0 0 0 0 1 1 1 1 1 1 1 1 1 0 0 0 0 0 0 0 0 0 0 0 0 0 0 0 0 0 0 0 0 0 0 0 0 0 0 0 0 0 0
0 0 0 0 0 1 1 1 1 1 1 1 1 0 0 0 0 0 0 0 0 0 0 0 0 0 0 0 0 0 0 0 0 0 0 0 0 0 0 0 0 0 0
0 0 0 0 0 0 0 0 0 0 0 0 1 1 0 0 0 0 0 0 0 0 0 0 0 0 0 0 0 0 0 0 0 0 0 0 0 0 0 0 0 0 0
0 0 0 0 0 0 0 0 0 0 0 0 0 0 0 0 0 0 0 0 0 0 0 0 -0 -0 -0 0 0 0 0 0 0 0 0 0 0 0 0 0 0 0 0
0 0 0 0 0 0 0 0 0 0 0 0 0 0 0 0 0 0 0 0 0 0 -0 -0 -0 -0 -0 -0 0 0 0 0 0 0 0 0 0 0 0 0 0 0 0
0 0 0 0 0 -0 -0 0 0 0 0 0 0 0 0 0 0 0 0 0 -0 -0 -0 -0 -0 -0 -0 -0 -0 0 0 0 0 0 0 0 0 0 0 0 0 0 0
0 0 0 0 -0 -0 0 0 0 0 0 0 0 0 0 0 0 0 0 0 0 -0 -0 -0 -0 -0 -0 -0 0 0 0 0 0 0 0 0 0 0 0 0 0 0 0
0 0 0 0 -0 0 0 0 0 0 0 0 0 0 0 0 0 0 0 0 0 0 0 0 0 0 0 0 0 0 0 0 0 0 0 0 0 1 1 1 1 1 1
0 0 0 0 0 0 0 0 0 0 0 0 0 0 0 0 0 0 0 0 0 0 0 0 0 0 0 0 0 0 0 0 0 0 0 0 0 1 1 1 1 1 1
0 0 0 0 0 0 0 0 0 0 0 0 0 0 0 0 0 0 0 0 0 0 0 0 0 0 0 0 0 0 0 0 0 0 0 0 0 0 1 1 1 1 1
0 0 0 0 0 0 0 0 0 0 0 0 0 0 0 0 0 0 0 0 0 0 0 0 0 0 0 0 0 0 0 0 0 0 0 0 0 0 0 0 1 1 1
0 0 0 0 0 0 0 0 0 0 0 0 0 0 0 0 0 0 0 0 0 0 0 0 0 0 0 0 0 0 0 0 0 0 0 0 0 0 0 0 0 1 1
0 0 0 0 0 0 0 0 0 0 0 0 0 0 0 0 0 0 0 0 0 0 0 0 0 0 0 0 0 0 0 0 0 0 0 0 0 0 0 0 0 0 1
0 0 0 0 0 0 0 0 0 0 0 0 0 0 0 0 0 0 0 0 0 0 0 0 0 0 0 0 0 0 0 0 0 0 0 0 0 0 0 0 0 0 0
0 0 0 0 0 0 0 0 0 0 0 0 0 0 0 0 0 0 0 0 0 0 0 0 0 0 0 0 0 0 0 0 0 0 0 0 0 0 0 0 0 0 0
0 0 0 0 0 0 0 0 0 0 0 0 0 0 0 0 0 0 0 0 0 0 0 0 0 0 0 0 0 0 0 0 0 0 0 0 0 0 0 0 0 0 0
0 0 0 0 0 0 0 0 0 0 0 0 0 0 0 0 0 0 0 0 0 0 0 0 0 0 0 0 0 0 0 0 0 0 0 0 0 0 0 0 0 0 0
0 0 0 0 0 0 0 0 0 0 0 0 0 0 0 0 0 0 0 0 0 0 0 0 0 0 0 0 0 0 0 0 0 0 0 0 0 0 0 0 0 0 0
0 0 0 0 0 0 0 0 0 0 0 0 0 0 0 0 0 0 0 0 0 0 0 0 0 0 0 0 0 0 0 0 0 0 0 0 0 0 0 0 0 0 0
Wind_Speed
6 6 9 11 12 12 12 12 13 13 13 12 12 12 12 12 11 11 11 11 11 11 12 12 11 11 10 10 9 8 7 7 6 5 4 5 6 6 6 8 10 8 11
9 7 10 11 12 12 12 13 13 13 12 12 11 11 11 10 10 9 9 9 9 10 11 11 11 10 9 9 8 7 6 5 4 3 1 2 5 6 5 6 8 7 11
10 7 10 11 12 12 12 12 12 12 13 12 11 11 10 10 9 9 9 9 9 10 10 10 10 9 8 7 6 5 4 3 2 1 1 2 5 7 6 5 6 9 10
10 6 8 11 11 11 10 11 12 12 13 12 11 11 10 9 8 8 8 8 9 9 10 9 8 8 7 6 5 3 2 1 1 1 1 4 6 8 7 5 5 7 9
8 6 8 12 11 10 10 10 11 12 12 12 10 9 8 7 7 7 7 8 8 8 8 8 8 7 6 6 5 3 2 2 0 2 2 5 5 9 8 6 5 5 5
9 7 8 12 12 11 10 9 10 11 11 11 10 9 7 6 5 5 5 6 6 6 7 7 6 5 4 4 4 3 2 2 1 1 1 2 3 9 10 8 6 6 5
8 6 7 11 11 11 10 10 10 10 10 10 9 8 7 6 5 4 4 5 5 5 6 5 5 3 3 3 3 3 4 3 2 2 1 0 2 7 9 8 7 6 5
11 7 7 10 12 10 10 9 9 9 9 9 8 8 6 5 4 3 3 4 4 4 4 4 3 3 3 3 4 4 4 4 3 3 2 1 2 5 7 7 6 5 4
11 9 6 6 7 9 9 8 8 8 8 8 7 7 6 4 4 4 4 3 3 4 4 4 4 4 4 5 5 5 5 4 1 2 4 2 4 4 5 5 4 3 2
8 8 7 6 5 5 5 8 8 8 8 7 7 7 6 5 5 5 4 4 5 5 5 4 4 4 5 6 7 7 5 3 0 2 2 4 6 6 5 4 3 2 2
7 5 5 5 5 5 4 7 8 9 8 7 6 8 6 3 3 4 5 6 6 5 5 5 5 5 6 7 9 10 6 1 2 2 3 6 8 8 7 6 6 5 4
7 6 5 5 4 4 5 4 3 4 4 4 3 4 4 3 3 4 5 7 7 6 6 6 6 6 5 4 7 9 3 3 2 3 4 9 9 8 7 7 7 6 6
7 4 4 3 3 4 3 3 2 2 2 3 4 4 4 3 3 2 2 3 3 5 3 4 4 3 4 4 4 4 4 3 2 3 4 10 10 9 9 8 8 8 9
6 3 3 2 2 4 4 4 4 3 2 2 3 4 4 3 3 3 3 3 3 2 2 2 3 4 5 6 5 5 4 3 2 2 4 10 11 11 11 10 10 11 11
7 4 3 3 3 4 4 3 4 4 4 3 2 3 4 3 4 3 3 3 3 3 3 3 3 4 4 4 4 3 4 4 4 3 3 8 10 11 12 13 13 13 14
11 7 4 4 4 4 3 3 3 3 3 3 2 2 3 3 3 3 2 2 3 3 3 2 2 2 2 2 3 4 4 4 4 4 3 4 8 10 12 14 15 15 16
15 10 8 6 4 3 3 2 3 3 3 3 2 2 3 3 3 3 2 1 1 1 1 1 1 2 2 3 4 5 4 5 5 5 5 3 4 9 12 14 15 16 17
15 11 6 3 3 4 4 4 3 4 4 3 3 3 4 4 4 3 4 3 3 3 3 3 3 3 4 3 4 4 4 4 5 6 5 5 4 6 8 14 15 16 17
7 6 3 4 4 5 5 5 5 5 5 5 5 5 6 7 6 5 4 4 4 4 4 4 3 3 3 5 5 4 4 4 5 8 7 7 6 6 6 10 16 17 17
6 6 6 6 5 5 4 5 5 7 6 6 6 6 7 6 7 5 4 4 4 4 4 3 3 3 3 4 6 6 5 5 5 6 8 7 7 8 8 8 7 9 14
7 7 7 7 6 5 4 4 4 4 4 5 6 7 8 7 6 5 4 4 4 4 4 4 3 4 4 4 4 6 5 5 5 5 5 6 8 9 8 8 7 6 7
7 8 9 9 8 7 5 4 4 3 4 3 4 6 7 7 6 6 5 4 4 4 5 5 4 3 3 4 3 4 6 6 3 5 6 7 9 8 9 10 8 7 6
10 10 10 10 11 10 8 5 5 4 3 4 5 5 6 7 7 6 6 5 5 4 4 4 4 3 2 2 1 2 4 6 7 4 5 6 6 6 7 8 8 7 7
11 11 12 11 11 10 9 8 8 6 4 4 3 4 5 7 7 6 5 5 4 3 3 4 3 1 2 2 2 2 4 6 7 7 3 3 6 7 7 8 8 7 6
12 11 10 11 10 9 9 8 8 7 4 3 4 5 6 5 5 5 4 4 3 2 2 3 2 2 1 2 2 3 4 5 6 7 8 5 5 6 7 8 7 6 6
10 10 9 9 9 8 9 9 8 8 6 6 6 5 4 4 4 5 5 4 3 3 3 3 3 4 3 4 3 3 4 4 5 6 8 8 7 7 8 8 7 6 5
Wind_Direction
151 166 149 130 126 128 128 124 121 117 114 112 109 106 104 102 99 98 101 105 108 110 113 116 117 116 114 111 107 101 92 84 75 76 100 122 121 115 113 118 128 130 134
147 155 146 134 130 132 135 134 130 127 123 120 116 113 111 109 106 103 102 107 113 118 120 122 123 125 127 127 125 121 113 106 96 84 92 160 153 140 126 120 134 150 148
141 147 143 138 134 133 136 138 136 134 130 127 124 121 120 118 116 113 113 116 120 124 127 130 133 137 140 142 141 141 141 138 125 100 217 180 162 154 142 134 147 161 161
144 143 142 138 133 129 128 135 137 136 135 132 130 128 128 128 127 126 127 129 132 136 141 145 150 154 159 163 167 177 192 204 235 135 134 148 156 151 146 139 136 160 175
136 134 140 135 127 120 117 125 134 137 137 136 133 132 131 132 134 138 141 142 144 149 156 163 169 176 182 190 198 211 237 274 267 117 114 124 132 143 140 130 120 117 150
132 132 132 127 121 113 108 114 128 135 137 137 137 136 133 130 132 141 151 155 159 163 170 174 178 193 212 220 231 248 280 323 51 102 86 107 127 142 135 128 116 105 103
123 115 120 119 116 113 112 116 126 133 136 137 137 136 132 129 130 136 149 160 169 177 183 179 176 190 224 256 278 299 324 345 81 111 111 121 168 145 135 127 114 100 93
125 117 116 121 121 118 119 121 126 132 136 136 137 136 134 132 132 141 154 163 170 173 169 167 179 199 231 262 280 300 322 346 96 143 170 197 193 149 134 127 118 107 92
125 124 118 120 123 126 126 127 131 135 139 142 143 141 141 145 156 166 164 161 160 160 168 181 202 227 254 274 289 303 317 336 117 182 188 192 191 162 142 127 120 119 108
124 129 131 127 122 124 132 143 147 149 154 158 156 152 154 157 160 161 151 163 171 178 187 203 225 248 273 291 300 305 312 344 183 203 193 200 191 178 159 149 156 166 169
128 130 132 132 138 141 152 169 166 167 172 172 171 168 158 155 155 160 172 182 187 196 208 225 246 269 288 301 304 303 309 296 262 228 213 208 195 190 178 178 184 195 208
154 161 146 149 158 165 179 165 170 177 183 180 181 180 165 166 180 183 192 196 204 212 223 235 251 270 284 299 301 304 296 281 250 234 225 217 206 203 198 199 202 209 218
153 150 140 149 176 189 187 169 181 184 189 197 199 194 179 175 186 178 177 211 226 229 240 266 272 274 275 275 284 291 286 284 262 251 236 226 220 221 220 218 219 224 229
128 124 105 128 208 216 194 185 185 184 192 203 209 197 181 182 187 180 188 208 224 230 230 255 264 265 269 274 275 278 285 285 274 262 257 241 232 234 238 237 235 235 235
103 88 96 124 200 211 195 200 186 187 188 188 180 178 174 180 193 197 207 215 234 236 227 237 253 266 266 274 282 301 310 307 301 288 280 263 249 249 253 256 253 249 246
112 118 141 167 180 170 167 171 164 160 156 146 142 127 128 141 156 172 211 228 254 251 232 223 238 257 275 301 322 332 324 323 315 313 305 296 281 270 265 265 266 264 261
135 152 172 171 158 136 126 124 114 119 120 122 116 96 96 106 117 122 114 109 289 309 337 24 345 13 13 4 346 337 332 327 322 317 310 299 296 291 284 279 276 273 268
148 155 168 139 109 88 78 72 72 78 80 70 55 47 51 60 72 72 58 38 28 39 35 41 25 15 13 2 337 318 321 319 317 312 310 306 299 298 297 294 288 283 276
130 116 94 63 68 71 73 71 68 62 56 54 53 49 42 42 46 58 55 39 40 48 37 29 30 19 1 349 326 313 320 316 311 315 313 308 303 298 295 294 295 292 287
71 67 64 57 56 64 65 63 60 57 51 51 51 47 45 40 41 48 51 38 42 48 37 26 26 21 8 344 331 327 310 308 311 311 311 312 310 307 306 302 301 299 296
69 67 64 60 52 57 56 56 58 54 47 47 48 43 41 35 33 39 32 30 34 44 39 27 21 19 14 4 351 325 307 291 294 301 312 319 317 317 317 311 304 297 297
82 77 73 66 60 58 64 67 77 84 66 61 41 36 34 32 25 28 25 25 28 35 31 28 35 25 3 19 0 327 316 315 306 325 326 315 313 316 316 317 315 312 305
84 82 81 72 67 63 64 67 63 51 41 29 24 23 20 25 27 33 37 41 36 38 26 18 33 25 346 343 15 296 298 293 313 276 290 296 303 313 316 314 314 325 325
93 87 81 75 70 64 63 66 67 64 51 26 18 22 14 20 29 38 43 41 36 33 21 356 20 352 332 313 296 241 251 276 292 299 287 289 303 302 302 306 308 307 316
98 91 84 79 72 65 63 63 63 57 48 33 25 21 13 8 15 19 27 24 15 4 347 331 326 306 279 269 267 264 268 272 265 282 296 289 286 279 283 287 288 290 293
97 91 86 81 72 64 62 60 61 58 48 36 21 9 359 350 352 360 6 3 349 334 317 305 293 288 278 273 269 257 255 262 274 278 289 295 290 283 281 280 280 277 276